Вернуться в каталог

STARLINK-6323

АктивенСвязьVLEO
NORAD 56524·PAYLOAD·🇺🇸 United States

Запущен May 14, 2023 с Cape Canaveral Space Force Station

Loading…

Ближайшие Пролёты (ближайшие 24 часа)

TLE

СвежийSource: CelesTrak SupGP

Эпоха: Sep 14, 2026, 20:37 UTC

1 56524C 23065X   26257.85951389  .00027351  00000+0  99089-3 0  2570
2 56524  43.0021 224.4793 0001682 270.4714 205.6864 15.27556969    14

Отслеживайте STARLINK-6323 в реальном времени с AllMySat

Download on the App Store